Year,Month,Day,Hour,Minute,Value (Times are PST for temperature in C)
2018,02,08,00,00,8.60
2018,02,08,00,01,8.60
2018,02,08,00,02,8.60
2018,02,08,00,03,8.60
2018,02,08,00,04,8.60
2018,02,08,00,05,8.60
2018,02,08,00,06,8.60
2018,02,08,00,07,8.60
2018,02,08,00,08,8.60
2018,02,08,00,09,8.60
2018,02,08,00,10,8.60
2018,02,08,00,11,8.50
2018,02,08,00,12,8.50
2018,02,08,00,13,8.50
2018,02,08,00,14,8.50
2018,02,08,00,15,8.50
2018,02,08,00,16,8.50
2018,02,08,00,17,8.40
2018,02,08,00,18,8.40
2018,02,08,00,19,8.40
2018,02,08,00,20,8.40
2018,02,08,00,21,8.40
2018,02,08,00,22,8.40
2018,02,08,00,23,8.40
2018,02,08,00,24,8.40
2018,02,08,00,25,8.40
2018,02,08,00,26,8.40
2018,02,08,00,27,8.40
2018,02,08,00,28,8.40
2018,02,08,00,29,8.40
2018,02,08,00,30,8.30
2018,02,08,00,31,8.30
2018,02,08,00,32,8.30
2018,02,08,00,33,8.30
2018,02,08,00,34,8.30
2018,02,08,00,35,8.30
2018,02,08,00,36,8.30
2018,02,08,00,37,8.30
2018,02,08,00,38,8.30
2018,02,08,00,39,8.30
2018,02,08,00,40,8.30
2018,02,08,00,41,8.30
2018,02,08,00,42,8.30
2018,02,08,00,43,8.30
2018,02,08,00,44,8.30
2018,02,08,00,45,8.30
2018,02,08,00,46,8.30
2018,02,08,00,47,8.30
2018,02,08,00,48,8.30
2018,02,08,00,49,8.30
2018,02,08,00,50,8.30
2018,02,08,00,51,8.30
2018,02,08,00,52,8.30
2018,02,08,00,53,8.30
2018,02,08,00,54,8.30
2018,02,08,00,55,8.30
2018,02,08,00,56,8.30
2018,02,08,00,57,8.30
2018,02,08,00,58,8.30
2018,02,08,00,59,8.30
2018,02,08,01,00,8.30
2018,02,08,01,01,8.30
2018,02,08,01,02,8.30
2018,02,08,01,03,8.30
2018,02,08,01,04,8.30
2018,02,08,01,05,8.30
2018,02,08,01,06,8.30
2018,02,08,01,07,8.30
2018,02,08,01,08,8.30
2018,02,08,01,09,8.30
2018,02,08,01,10,8.30
2018,02,08,01,11,8.30
2018,02,08,01,12,8.30
2018,02,08,01,13,8.30
2018,02,08,01,14,8.40
2018,02,08,01,15,8.40
2018,02,08,01,16,8.40
2018,02,08,01,17,8.40
2018,02,08,01,18,8.40
2018,02,08,01,19,8.40
2018,02,08,01,20,8.40
2018,02,08,01,21,8.40
2018,02,08,01,22,8.40
2018,02,08,01,23,8.50
2018,02,08,01,24,8.50
2018,02,08,01,25,8.50
2018,02,08,01,26,8.50
2018,02,08,01,27,8.50
2018,02,08,01,28,8.60
2018,02,08,01,29,8.60
2018,02,08,01,30,8.60
2018,02,08,01,31,8.60
2018,02,08,01,32,8.60
2018,02,08,01,33,8.60
2018,02,08,01,34,8.60
2018,02,08,01,35,8.60
2018,02,08,01,36,8.60
2018,02,08,01,37,8.60
2018,02,08,01,38,8.70
2018,02,08,01,39,8.70
2018,02,08,01,40,8.70
2018,02,08,01,41,8.70
2018,02,08,01,42,8.70
2018,02,08,01,43,8.70
2018,02,08,01,44,8.70
2018,02,08,01,45,8.70
2018,02,08,01,46,8.70
2018,02,08,01,47,8.80
2018,02,08,01,48,8.80
2018,02,08,01,49,8.80
2018,02,08,01,50,8.80
2018,02,08,01,51,8.80
2018,02,08,01,52,8.80
2018,02,08,01,53,8.80
2018,02,08,01,54,8.80
2018,02,08,01,55,8.80
2018,02,08,01,56,8.80
2018,02,08,01,57,8.80
2018,02,08,01,58,8.80
2018,02,08,01,59,8.80
2018,02,08,02,00,8.80
2018,02,08,02,01,8.80
2018,02,08,02,02,8.80
2018,02,08,02,03,8.70
2018,02,08,02,04,8.70
2018,02,08,02,05,8.70
2018,02,08,02,06,8.70
2018,02,08,02,07,8.70
2018,02,08,02,08,8.70
2018,02,08,02,09,8.70
2018,02,08,02,10,8.70
2018,02,08,02,11,8.70
2018,02,08,02,12,8.70
2018,02,08,02,13,8.70
2018,02,08,02,14,8.70
2018,02,08,02,15,8.70
2018,02,08,02,16,8.70
2018,02,08,02,17,8.70
2018,02,08,02,18,8.80
2018,02,08,02,19,8.80
2018,02,08,02,20,8.80
2018,02,08,02,21,8.80
2018,02,08,02,22,8.80
2018,02,08,02,23,8.80
2018,02,08,02,24,8.80
2018,02,08,02,25,8.80
2018,02,08,02,26,8.80
2018,02,08,02,27,8.80
2018,02,08,02,28,8.80
2018,02,08,02,29,8.80
2018,02,08,02,30,8.80
2018,02,08,02,31,8.80
2018,02,08,02,32,8.80
2018,02,08,02,33,8.80
2018,02,08,02,34,8.80
2018,02,08,02,35,8.80
2018,02,08,02,36,8.80
2018,02,08,02,37,8.90
2018,02,08,02,38,8.90
2018,02,08,02,39,8.90
2018,02,08,02,40,8.90
2018,02,08,02,41,8.90
2018,02,08,02,42,8.90
2018,02,08,02,43,9.00
2018,02,08,02,44,9.00
2018,02,08,02,45,9.00
2018,02,08,02,46,9.10
2018,02,08,02,47,9.10
2018,02,08,02,48,9.20
2018,02,08,02,49,9.20
2018,02,08,02,50,9.20
2018,02,08,02,51,9.30
2018,02,08,02,52,9.30
2018,02,08,02,53,9.30
2018,02,08,02,54,9.30
2018,02,08,02,55,9.30
2018,02,08,02,56,9.40
2018,02,08,02,57,9.40
2018,02,08,02,58,9.40
2018,02,08,02,59,9.40
2018,02,08,03,00,9.40
2018,02,08,03,01,9.40
2018,02,08,03,02,9.40
2018,02,08,03,03,9.40
2018,02,08,03,04,9.50
2018,02,08,03,05,9.50
2018,02,08,03,06,9.60
2018,02,08,03,07,9.60
2018,02,08,03,08,9.60
2018,02,08,03,09,9.70
2018,02,08,03,10,9.70
2018,02,08,03,11,9.70
2018,02,08,03,12,9.70
2018,02,08,03,13,9.70
2018,02,08,03,14,9.80
2018,02,08,03,15,9.80
2018,02,08,03,16,9.80
2018,02,08,03,17,9.80
2018,02,08,03,18,9.80
2018,02,08,03,19,9.80
2018,02,08,03,20,9.80
2018,02,08,03,21,9.90
2018,02,08,03,22,9.90
2018,02,08,03,23,9.90
2018,02,08,03,24,9.90
2018,02,08,03,25,9.90
2018,02,08,03,26,9.90
2018,02,08,03,27,9.90
2018,02,08,03,28,9.90
2018,02,08,03,29,10.00
2018,02,08,03,30,10.00
2018,02,08,03,31,10.00
2018,02,08,03,32,10.00
2018,02,08,03,33,10.00
2018,02,08,03,34,10.10
2018,02,08,03,35,10.10
2018,02,08,03,36,10.10
2018,02,08,03,37,10.10
2018,02,08,03,38,10.10
2018,02,08,03,39,10.10
2018,02,08,03,40,10.10
2018,02,08,03,41,10.10
2018,02,08,03,42,10.10
2018,02,08,03,43,10.10
2018,02,08,03,44,10.00
2018,02,08,03,45,10.00
2018,02,08,03,46,10.00
2018,02,08,03,47,10.00
2018,02,08,03,48,10.00
2018,02,08,03,49,10.00
2018,02,08,03,50,10.00
2018,02,08,03,51,10.00
2018,02,08,03,52,10.00
2018,02,08,03,53,10.10
2018,02,08,03,54,10.00
2018,02,08,03,55,10.10
2018,02,08,03,56,10.10
2018,02,08,03,57,10.10
2018,02,08,03,58,10.10
2018,02,08,03,59,10.10
2018,02,08,04,00,10.10
2018,02,08,04,01,10.10
2018,02,08,04,02,10.10
2018,02,08,04,03,10.10
2018,02,08,04,04,10.10
2018,02,08,04,05,10.10
2018,02,08,04,06,10.10
2018,02,08,04,07,10.10
2018,02,08,04,08,10.10
2018,02,08,04,09,10.10
2018,02,08,04,10,10.10
2018,02,08,04,11,10.10
2018,02,08,04,12,10.10
2018,02,08,04,13,10.10
2018,02,08,04,14,10.20
2018,02,08,04,15,10.20
2018,02,08,04,16,10.10
2018,02,08,04,17,10.10
2018,02,08,04,18,10.10
2018,02,08,04,19,10.10
2018,02,08,04,20,10.10
2018,02,08,04,21,10.10
2018,02,08,04,22,10.10
2018,02,08,04,23,10.00
2018,02,08,04,24,10.00
2018,02,08,04,25,10.00
2018,02,08,04,26,10.00
2018,02,08,04,27,10.00
2018,02,08,04,28,10.00
2018,02,08,04,29,9.90
2018,02,08,04,30,9.90
2018,02,08,04,31,9.90
2018,02,08,04,32,9.90
2018,02,08,04,33,9.80
2018,02,08,04,34,9.80
2018,02,08,04,35,9.80
2018,02,08,04,36,9.80
2018,02,08,04,37,9.80
2018,02,08,04,38,9.80
2018,02,08,04,39,9.80
2018,02,08,04,40,9.80
2018,02,08,04,41,9.70
2018,02,08,04,42,9.70
2018,02,08,04,43,9.70
2018,02,08,04,44,9.70
2018,02,08,04,45,9.70
2018,02,08,04,46,9.70
2018,02,08,04,47,9.70
2018,02,08,04,48,9.70
2018,02,08,04,49,9.70
2018,02,08,04,50,9.70
2018,02,08,04,51,9.70
2018,02,08,04,52,9.70
2018,02,08,04,53,9.70
2018,02,08,04,54,9.70
2018,02,08,04,55,9.70
2018,02,08,04,56,9.70
2018,02,08,04,57,9.70
2018,02,08,04,58,9.70
2018,02,08,04,59,9.70
2018,02,08,05,00,9.70
2018,02,08,05,01,9.70
2018,02,08,05,02,9.70
2018,02,08,05,03,9.70
2018,02,08,05,04,9.70
2018,02,08,05,05,9.70
2018,02,08,05,06,9.70
2018,02,08,05,07,9.70
2018,02,08,05,08,9.70
2018,02,08,05,09,9.70
2018,02,08,05,10,9.70
2018,02,08,05,11,9.70
2018,02,08,05,12,9.70
2018,02,08,05,13,9.70
2018,02,08,05,14,9.70
2018,02,08,05,15,9.70
2018,02,08,05,16,9.70
2018,02,08,05,17,9.70
2018,02,08,05,18,9.70
2018,02,08,05,19,9.70
2018,02,08,05,20,9.70
2018,02,08,05,21,9.70
2018,02,08,05,22,9.70
2018,02,08,05,23,9.70
2018,02,08,05,24,9.70
2018,02,08,05,25,9.70
2018,02,08,05,26,9.70
2018,02,08,05,27,9.70
2018,02,08,05,28,9.70
2018,02,08,05,29,9.70
2018,02,08,05,30,9.60
2018,02,08,05,31,9.60
2018,02,08,05,32,9.60
2018,02,08,05,33,9.60
2018,02,08,05,34,9.60
2018,02,08,05,35,9.60
2018,02,08,05,36,9.60
2018,02,08,05,37,9.60
2018,02,08,05,38,9.60
2018,02,08,05,39,9.60
2018,02,08,05,40,9.60
2018,02,08,05,41,9.60
2018,02,08,05,42,9.60
2018,02,08,05,43,9.60
2018,02,08,05,44,9.60
2018,02,08,05,45,9.60
2018,02,08,05,46,9.60
2018,02,08,05,47,9.60
2018,02,08,05,48,9.50
2018,02,08,05,49,9.50
2018,02,08,05,50,9.50
2018,02,08,05,51,9.50
2018,02,08,05,52,9.50
2018,02,08,05,53,9.50
2018,02,08,05,54,9.50
2018,02,08,05,55,9.50
2018,02,08,05,56,9.50
2018,02,08,05,57,9.50
2018,02,08,05,58,9.50
2018,02,08,05,59,9.50
2018,02,08,06,00,9.40
2018,02,08,06,01,9.40
2018,02,08,06,02,9.40
2018,02,08,06,03,9.40
2018,02,08,06,04,9.40
2018,02,08,06,05,9.40
2018,02,08,06,06,9.40
2018,02,08,06,07,9.40
2018,02,08,06,08,9.40
2018,02,08,06,09,9.40
2018,02,08,06,10,9.40
2018,02,08,06,11,9.40
2018,02,08,06,12,9.40
2018,02,08,06,13,9.40
2018,02,08,06,14,9.40
2018,02,08,06,15,9.40
2018,02,08,06,16,9.40
2018,02,08,06,17,9.40
2018,02,08,06,18,9.40
2018,02,08,06,19,9.40
2018,02,08,06,20,9.40
2018,02,08,06,21,9.40
2018,02,08,06,22,9.40
2018,02,08,06,23,9.40
2018,02,08,06,24,9.40
2018,02,08,06,25,9.40
2018,02,08,06,26,9.40
2018,02,08,06,27,9.40
2018,02,08,06,28,9.40
2018,02,08,06,29,9.40
2018,02,08,06,30,9.40
2018,02,08,06,31,9.40
2018,02,08,06,32,9.40
2018,02,08,06,33,9.40
2018,02,08,06,34,9.40
2018,02,08,06,35,9.40
2018,02,08,06,36,9.40
2018,02,08,06,37,9.40
2018,02,08,06,38,9.40
2018,02,08,06,39,9.40
2018,02,08,06,40,9.40
2018,02,08,06,41,9.40
2018,02,08,06,42,9.40
2018,02,08,06,43,9.30
2018,02,08,06,44,9.40
2018,02,08,06,45,9.40
2018,02,08,06,46,9.30
2018,02,08,06,47,9.30
2018,02,08,06,48,9.30
2018,02,08,06,49,9.30
2018,02,08,06,50,9.30
2018,02,08,06,51,9.40
2018,02,08,06,52,9.40
2018,02,08,06,53,9.40
2018,02,08,06,54,9.40
2018,02,08,06,55,9.40
2018,02,08,06,56,9.40
2018,02,08,06,57,9.40
2018,02,08,06,58,9.40
2018,02,08,06,59,9.50
2018,02,08,07,00,9.50
2018,02,08,07,01,9.50
2018,02,08,07,02,9.50
2018,02,08,07,03,9.50
2018,02,08,07,04,9.50
2018,02,08,07,05,9.50
2018,02,08,07,06,9.50
2018,02,08,07,07,9.50
2018,02,08,07,08,9.50
2018,02,08,07,09,9.50
2018,02,08,07,10,9.50
2018,02,08,07,11,9.40
2018,02,08,07,12,9.50
2018,02,08,07,13,9.50
2018,02,08,07,14,9.50
2018,02,08,07,15,9.50
2018,02,08,07,16,9.50
2018,02,08,07,17,9.50
2018,02,08,07,18,9.50
2018,02,08,07,19,9.50
2018,02,08,07,20,9.50
2018,02,08,07,21,9.50
2018,02,08,07,22,9.50
2018,02,08,07,23,9.50
2018,02,08,07,24,9.50
2018,02,08,07,25,9.50
2018,02,08,07,26,9.50
2018,02,08,07,27,9.40
2018,02,08,07,28,9.40
2018,02,08,07,29,9.40
2018,02,08,07,30,9.40
2018,02,08,07,31,9.40
2018,02,08,07,32,9.40
2018,02,08,07,33,9.50
2018,02,08,07,34,9.50
2018,02,08,07,35,9.50
2018,02,08,07,36,9.50
2018,02,08,07,37,9.50
2018,02,08,07,38,9.50
2018,02,08,07,39,9.50
2018,02,08,07,40,9.50
2018,02,08,07,41,9.50
2018,02,08,07,42,9.50
2018,02,08,07,43,9.50
2018,02,08,07,44,9.60
2018,02,08,07,45,9.60
2018,02,08,07,46,9.60
2018,02,08,07,47,9.50
2018,02,08,07,48,9.50
2018,02,08,07,49,9.50
2018,02,08,07,50,9.50
2018,02,08,07,51,9.50
2018,02,08,07,52,9.60
2018,02,08,07,53,9.60
2018,02,08,07,54,9.60
2018,02,08,07,55,9.60
2018,02,08,07,56,9.60
2018,02,08,07,57,9.60
2018,02,08,07,58,9.60
2018,02,08,07,59,9.60
2018,02,08,08,00,9.60
2018,02,08,08,01,9.60
2018,02,08,08,02,9.60
2018,02,08,08,03,9.60
2018,02,08,08,04,9.60
2018,02,08,08,05,9.60
2018,02,08,08,06,9.60
2018,02,08,08,07,9.60
2018,02,08,08,08,9.60
2018,02,08,08,09,9.60
2018,02,08,08,10,9.60
2018,02,08,08,11,9.60
2018,02,08,08,12,9.60
2018,02,08,08,13,9.60
2018,02,08,08,14,9.60
2018,02,08,08,15,9.60
2018,02,08,08,16,9.60
2018,02,08,08,17,9.60
2018,02,08,08,18,9.50
2018,02,08,08,19,9.50
2018,02,08,08,20,9.50
2018,02,08,08,21,9.50
2018,02,08,08,22,9.60
2018,02,08,08,23,9.60
2018,02,08,08,24,9.60
2018,02,08,08,25,9.60
2018,02,08,08,26,9.60
2018,02,08,08,27,9.60
2018,02,08,08,28,9.60
2018,02,08,08,29,9.60
2018,02,08,08,30,9.60
2018,02,08,08,31,9.60
2018,02,08,08,32,9.60
2018,02,08,08,33,9.50
2018,02,08,08,34,9.60
2018,02,08,08,35,9.60
2018,02,08,08,36,9.60
2018,02,08,08,37,9.60
2018,02,08,08,38,9.60
2018,02,08,08,39,9.60
2018,02,08,08,40,9.60
2018,02,08,08,41,9.60
2018,02,08,08,42,9.60
2018,02,08,08,43,9.60
2018,02,08,08,44,9.60
2018,02,08,08,45,9.60
2018,02,08,08,46,9.60
2018,02,08,08,47,9.60
2018,02,08,08,48,9.60
2018,02,08,08,49,9.60
2018,02,08,08,50,9.60
2018,02,08,08,51,9.60
2018,02,08,08,52,9.60
2018,02,08,08,53,9.60
2018,02,08,08,54,9.60
2018,02,08,08,55,9.60
2018,02,08,08,56,9.60
2018,02,08,08,57,9.60
2018,02,08,08,58,9.60
2018,02,08,08,59,9.60
2018,02,08,09,00,9.70
2018,02,08,09,01,9.70
2018,02,08,09,02,9.70
2018,02,08,09,03,9.70
2018,02,08,09,04,9.70
2018,02,08,09,05,9.70
2018,02,08,09,06,9.70
2018,02,08,09,07,9.70
2018,02,08,09,08,9.80
2018,02,08,09,09,9.80
2018,02,08,09,10,9.80
2018,02,08,09,11,9.80
2018,02,08,09,12,9.80
2018,02,08,09,13,9.80
2018,02,08,09,14,9.80
2018,02,08,09,15,9.80
2018,02,08,09,16,9.80
2018,02,08,09,17,9.80
2018,02,08,09,18,9.80
2018,02,08,09,19,9.80
2018,02,08,09,20,9.80
2018,02,08,09,21,9.80
2018,02,08,09,22,9.80
2018,02,08,09,23,9.80
2018,02,08,09,24,9.80
2018,02,08,09,25,9.80
2018,02,08,09,26,9.70
2018,02,08,09,27,9.70
2018,02,08,09,28,9.70
2018,02,08,09,29,9.70
2018,02,08,09,30,9.70
2018,02,08,09,31,9.70
2018,02,08,09,32,9.80
2018,02,08,09,33,9.80
2018,02,08,09,34,9.80
2018,02,08,09,35,9.80
2018,02,08,09,36,9.80
2018,02,08,09,37,9.80
2018,02,08,09,38,9.80
2018,02,08,09,39,9.80
2018,02,08,09,40,9.80
2018,02,08,09,41,9.80
2018,02,08,09,42,9.80
2018,02,08,09,43,9.80
2018,02,08,09,44,9.80
2018,02,08,09,45,9.80
2018,02,08,09,46,9.80
2018,02,08,09,47,9.80
2018,02,08,09,48,9.80
2018,02,08,09,49,9.80
2018,02,08,09,50,9.80
2018,02,08,09,51,9.80
2018,02,08,09,52,9.80
2018,02,08,09,53,9.90
2018,02,08,09,54,9.90
2018,02,08,09,55,10.00
2018,02,08,09,56,10.10
2018,02,08,09,57,10.10
2018,02,08,09,58,10.20
2018,02,08,09,59,10.20
2018,02,08,10,00,10.30
2018,02,08,10,01,10.30
2018,02,08,10,02,10.30
2018,02,08,10,03,10.30
2018,02,08,10,04,10.20
2018,02,08,10,05,10.20
2018,02,08,10,06,10.20
2018,02,08,10,07,10.20
2018,02,08,10,08,10.20
2018,02,08,10,09,10.20
2018,02,08,10,10,10.20
2018,02,08,10,11,10.10
2018,02,08,10,12,10.10
2018,02,08,10,13,10.10
2018,02,08,10,14,10.00
2018,02,08,10,15,10.00
2018,02,08,10,16,10.00
2018,02,08,10,17,9.90
2018,02,08,10,18,9.90
2018,02,08,10,19,9.90
2018,02,08,10,20,9.90
2018,02,08,10,21,9.90
2018,02,08,10,22,9.90
2018,02,08,10,23,10.00
2018,02,08,10,24,10.00
2018,02,08,10,25,10.10
2018,02,08,10,26,10.10
2018,02,08,10,27,10.20
2018,02,08,10,28,10.20
2018,02,08,10,29,10.30
2018,02,08,10,30,10.30
2018,02,08,10,31,10.30
2018,02,08,10,32,10.40
2018,02,08,10,33,10.40
2018,02,08,10,34,10.40
2018,02,08,10,35,10.50
2018,02,08,10,36,10.50
2018,02,08,10,37,10.50
2018,02,08,10,38,10.60
2018,02,08,10,39,10.60
2018,02,08,10,40,10.60
2018,02,08,10,41,10.60
2018,02,08,10,42,10.60
2018,02,08,10,43,10.60
2018,02,08,10,44,10.60
2018,02,08,10,45,10.60
2018,02,08,10,46,10.50
2018,02,08,10,47,10.60
2018,02,08,10,48,10.60
2018,02,08,10,49,10.60
2018,02,08,10,50,10.60
2018,02,08,10,51,10.60
2018,02,08,10,52,10.60
2018,02,08,10,53,10.60
2018,02,08,10,54,10.60
2018,02,08,10,55,10.60
2018,02,08,10,56,10.60
2018,02,08,10,57,10.60
2018,02,08,10,58,10.60
2018,02,08,10,59,10.60
2018,02,08,11,00,10.60
2018,02,08,11,01,10.60
2018,02,08,11,02,10.60
2018,02,08,11,03,10.70
2018,02,08,11,04,10.70
2018,02,08,11,05,10.70
2018,02,08,11,06,10.70
2018,02,08,11,07,10.70
2018,02,08,11,08,10.70
2018,02,08,11,09,10.70
2018,02,08,11,10,10.70
2018,02,08,11,11,10.70
2018,02,08,11,12,10.60
2018,02,08,11,13,10.60
2018,02,08,11,14,10.60
2018,02,08,11,15,10.60
2018,02,08,11,16,10.60
2018,02,08,11,17,10.60
2018,02,08,11,18,10.60
2018,02,08,11,19,10.60
2018,02,08,11,20,10.60
2018,02,08,11,21,10.60
2018,02,08,11,22,10.60
2018,02,08,11,23,10.60
2018,02,08,11,24,10.60
2018,02,08,11,25,10.60
2018,02,08,11,26,10.60
2018,02,08,11,27,10.70
2018,02,08,11,28,10.70
2018,02,08,11,29,10.70
2018,02,08,11,30,10.70
2018,02,08,11,31,10.70
2018,02,08,11,32,10.70
2018,02,08,11,33,10.70
2018,02,08,11,34,10.70
2018,02,08,11,35,10.70
2018,02,08,11,36,10.70
2018,02,08,11,37,10.80
2018,02,08,11,38,10.70
2018,02,08,11,39,10.70
2018,02,08,11,40,10.60
2018,02,08,11,41,10.60
2018,02,08,11,42,10.60
2018,02,08,11,43,10.70
2018,02,08,11,44,10.70
2018,02,08,11,45,10.80
2018,02,08,11,46,10.70
2018,02,08,11,47,10.70
2018,02,08,11,48,10.70
2018,02,08,11,49,10.60
2018,02,08,11,50,10.60
2018,02,08,11,51,10.60
2018,02,08,11,52,10.60
2018,02,08,11,53,10.60
2018,02,08,11,54,10.50
2018,02,08,11,55,10.40
2018,02,08,11,56,10.40
2018,02,08,11,57,10.40
2018,02,08,11,58,10.40
2018,02,08,11,59,10.40
2018,02,08,12,00,10.40
2018,02,08,12,01,10.40
2018,02,08,12,02,10.40
2018,02,08,12,03,10.50
2018,02,08,12,04,10.50
2018,02,08,12,05,10.60
2018,02,08,12,06,10.60
2018,02,08,12,07,10.60
2018,02,08,12,08,10.60
2018,02,08,12,09,10.60
2018,02,08,12,10,10.60
2018,02,08,12,11,10.70
2018,02,08,12,12,10.70
2018,02,08,12,13,10.70
2018,02,08,12,14,10.70
2018,02,08,12,15,10.60
2018,02,08,12,16,10.60
2018,02,08,12,17,10.50
2018,02,08,12,18,10.60
2018,02,08,12,19,10.60
2018,02,08,12,20,10.60
2018,02,08,12,21,10.70
2018,02,08,12,22,10.80
2018,02,08,12,23,10.80
2018,02,08,12,24,10.80
2018,02,08,12,25,10.80
2018,02,08,12,26,10.90
2018,02,08,12,27,10.90
2018,02,08,12,28,10.90
2018,02,08,12,29,10.90
2018,02,08,12,30,10.90
2018,02,08,12,31,10.90
2018,02,08,12,32,10.90
2018,02,08,12,33,10.90
2018,02,08,12,34,11.00
2018,02,08,12,35,11.10
2018,02,08,12,36,11.10
2018,02,08,12,37,11.10
2018,02,08,12,38,11.20
2018,02,08,12,39,11.10
2018,02,08,12,40,11.10
2018,02,08,12,41,11.20
2018,02,08,12,42,11.20
2018,02,08,12,43,11.30
2018,02,08,12,44,11.30
2018,02,08,12,45,11.30
2018,02,08,12,46,11.30
2018,02,08,12,47,11.30
2018,02,08,12,48,11.30
2018,02,08,12,49,11.30
2018,02,08,12,50,11.30
2018,02,08,12,51,11.30
2018,02,08,12,52,11.30
2018,02,08,12,53,11.30
2018,02,08,12,54,11.30
2018,02,08,12,55,11.30
2018,02,08,12,56,11.30
2018,02,08,12,57,11.20
2018,02,08,12,58,11.20
2018,02,08,12,59,11.20
2018,02,08,13,00,11.20
2018,02,08,13,01,11.20
2018,02,08,13,02,11.20
2018,02,08,13,03,11.20
2018,02,08,13,04,11.20
2018,02,08,13,05,11.20
2018,02,08,13,06,11.20
2018,02,08,13,07,11.10
2018,02,08,13,08,11.00
2018,02,08,13,09,11.00
2018,02,08,13,10,11.00
2018,02,08,13,11,11.00
2018,02,08,13,12,11.00
2018,02,08,13,13,11.00
2018,02,08,13,14,11.00
2018,02,08,13,15,11.10
2018,02,08,13,16,11.10
2018,02,08,13,17,11.10
2018,02,08,13,18,11.10
2018,02,08,13,19,11.00
2018,02,08,13,20,11.00
2018,02,08,13,21,11.00
2018,02,08,13,22,11.00
2018,02,08,13,23,11.00
2018,02,08,13,24,11.00
2018,02,08,13,25,11.10
2018,02,08,13,26,11.00
2018,02,08,13,27,10.90
2018,02,08,13,28,10.90
2018,02,08,13,29,10.90
2018,02,08,13,30,10.90
2018,02,08,13,31,10.90
2018,02,08,13,32,11.00
2018,02,08,13,33,11.00
2018,02,08,13,34,11.10
2018,02,08,13,35,11.10
2018,02,08,13,36,11.00
2018,02,08,13,37,11.00
2018,02,08,13,38,11.00
2018,02,08,13,39,11.00
2018,02,08,13,40,11.00
2018,02,08,13,41,11.10
2018,02,08,13,42,11.10
2018,02,08,13,43,11.00
2018,02,08,13,44,10.90
2018,02,08,13,45,10.90
2018,02,08,13,46,10.80
2018,02,08,13,47,10.80
2018,02,08,13,48,10.80
2018,02,08,13,49,10.70
2018,02,08,13,50,10.70
2018,02,08,13,51,10.70
2018,02,08,13,52,10.70
2018,02,08,13,53,10.80
2018,02,08,13,54,10.70
2018,02,08,13,55,10.80
2018,02,08,13,56,10.80
2018,02,08,13,57,10.80
2018,02,08,13,58,10.80
2018,02,08,13,59,10.80
2018,02,08,14,00,10.70
2018,02,08,14,01,10.70
2018,02,08,14,02,10.70
2018,02,08,14,03,10.70
2018,02,08,14,04,10.60
2018,02,08,14,05,10.50
2018,02,08,14,06,10.50
2018,02,08,14,07,10.50
2018,02,08,14,08,10.50
2018,02,08,14,09,10.40
2018,02,08,14,10,10.40
2018,02,08,14,11,10.40
2018,02,08,14,12,10.40
2018,02,08,14,13,10.40
2018,02,08,14,14,10.40
2018,02,08,14,15,10.40
2018,02,08,14,16,10.40
2018,02,08,14,17,10.40
2018,02,08,14,18,10.30
2018,02,08,14,19,10.30
2018,02,08,14,20,10.30
2018,02,08,14,21,10.30
2018,02,08,14,22,10.30
2018,02,08,14,23,10.30
2018,02,08,14,24,10.30
2018,02,08,14,25,10.20
2018,02,08,14,26,10.10
2018,02,08,14,27,10.10
2018,02,08,14,28,10.20
2018,02,08,14,29,10.20
2018,02,08,14,30,10.20
2018,02,08,14,31,10.20
2018,02,08,14,32,10.20
2018,02,08,14,33,10.30
2018,02,08,14,34,10.30
2018,02,08,14,35,10.30
2018,02,08,14,36,10.30
2018,02,08,14,37,10.30
2018,02,08,14,38,10.30
2018,02,08,14,39,10.30
2018,02,08,14,40,10.40
2018,02,08,14,41,10.40
2018,02,08,14,42,10.30
2018,02,08,14,43,10.30
2018,02,08,14,44,10.20
2018,02,08,14,45,10.20
2018,02,08,14,46,10.30
2018,02,08,14,47,10.30
2018,02,08,14,48,10.30
2018,02,08,14,49,10.30
2018,02,08,14,50,10.30
2018,02,08,14,51,10.30
2018,02,08,14,52,10.30
2018,02,08,14,53,10.40
2018,02,08,14,54,10.40
2018,02,08,14,55,10.40
2018,02,08,14,56,10.40
2018,02,08,14,57,10.40
2018,02,08,14,58,10.40
2018,02,08,14,59,10.40
2018,02,08,15,00,10.50
2018,02,08,15,01,10.50
2018,02,08,15,02,10.50
2018,02,08,15,03,10.50
2018,02,08,15,04,10.40
2018,02,08,15,05,10.40
2018,02,08,15,06,10.40
2018,02,08,15,07,10.30
2018,02,08,15,08,10.30
2018,02,08,15,09,10.20
2018,02,08,15,10,10.10
2018,02,08,15,11,10.10
2018,02,08,15,12,10.10
2018,02,08,15,13,10.00
2018,02,08,15,14,10.00
2018,02,08,15,15,10.00
2018,02,08,15,16,9.90
2018,02,08,15,17,9.90
2018,02,08,15,18,9.90
2018,02,08,15,19,9.90
2018,02,08,15,20,9.90
2018,02,08,15,21,9.80
2018,02,08,15,22,9.80
2018,02,08,15,23,9.80
2018,02,08,15,24,9.80
2018,02,08,15,25,9.80
2018,02,08,15,26,9.80
2018,02,08,15,27,9.80
2018,02,08,15,28,9.90
2018,02,08,15,29,9.90
2018,02,08,15,30,9.80
2018,02,08,15,31,9.80
2018,02,08,15,32,9.80
2018,02,08,15,33,9.80
2018,02,08,15,34,9.80
2018,02,08,15,35,9.90
2018,02,08,15,36,9.90
2018,02,08,15,37,9.90
2018,02,08,15,38,9.90
2018,02,08,15,39,9.90
2018,02,08,15,40,9.90
2018,02,08,15,41,9.80
2018,02,08,15,42,9.80
2018,02,08,15,43,9.80
2018,02,08,15,44,9.90
2018,02,08,15,45,9.90
2018,02,08,15,46,9.90
2018,02,08,15,47,9.80
2018,02,08,15,48,9.90
2018,02,08,15,49,9.90
2018,02,08,15,50,9.90
2018,02,08,15,51,9.80
2018,02,08,15,52,9.90
2018,02,08,15,53,9.90
2018,02,08,15,54,9.90
2018,02,08,15,55,9.80
2018,02,08,15,56,9.80
2018,02,08,15,57,9.80
2018,02,08,15,58,9.80
2018,02,08,15,59,9.70
2018,02,08,16,00,9.70
2018,02,08,16,01,9.70
2018,02,08,16,02,9.70
2018,02,08,16,03,9.70
2018,02,08,16,04,9.70
2018,02,08,16,05,9.70
2018,02,08,16,06,9.70
2018,02,08,16,07,9.70
2018,02,08,16,08,9.60
2018,02,08,16,09,9.60
2018,02,08,16,10,9.60
2018,02,08,16,11,9.60
2018,02,08,16,12,9.60
2018,02,08,16,13,9.60
2018,02,08,16,14,9.60
2018,02,08,16,15,9.50
2018,02,08,16,16,9.50
2018,02,08,16,17,9.50
2018,02,08,16,18,9.50
2018,02,08,16,19,9.50
2018,02,08,16,20,9.50
2018,02,08,16,21,9.50
2018,02,08,16,22,9.50
2018,02,08,16,23,9.40
2018,02,08,16,24,9.40
2018,02,08,16,25,9.40
2018,02,08,16,26,9.40
2018,02,08,16,27,9.40
2018,02,08,16,28,9.40
2018,02,08,16,29,9.40
2018,02,08,16,30,9.40
2018,02,08,16,31,9.40
2018,02,08,16,32,9.30
2018,02,08,16,33,9.30
2018,02,08,16,34,9.30
2018,02,08,16,35,9.30
2018,02,08,16,36,9.30
2018,02,08,16,37,9.20
2018,02,08,16,38,9.20
2018,02,08,16,39,9.20
2018,02,08,16,40,9.10
2018,02,08,16,41,9.10
2018,02,08,16,42,9.10
2018,02,08,16,43,9.10
2018,02,08,16,44,9.10
2018,02,08,16,45,9.00
2018,02,08,16,46,9.00
2018,02,08,16,47,9.00
2018,02,08,16,48,9.00
2018,02,08,16,49,9.00
2018,02,08,16,50,8.90
2018,02,08,16,51,8.90
2018,02,08,16,52,8.90
2018,02,08,16,53,8.90
2018,02,08,16,54,8.80
2018,02,08,16,55,8.80
2018,02,08,16,56,8.80
2018,02,08,16,57,8.80
2018,02,08,16,58,8.80
2018,02,08,16,59,8.80
2018,02,08,17,00,8.80
2018,02,08,17,01,8.70
2018,02,08,17,02,8.70
2018,02,08,17,03,8.70
2018,02,08,17,04,8.70
2018,02,08,17,05,8.70
2018,02,08,17,06,8.70
2018,02,08,17,07,8.70
2018,02,08,17,08,8.60
2018,02,08,17,09,8.60
2018,02,08,17,10,8.60
2018,02,08,17,11,8.60
2018,02,08,17,12,8.60
2018,02,08,17,13,8.60
2018,02,08,17,14,8.60
2018,02,08,17,15,8.60
2018,02,08,17,16,8.60
2018,02,08,17,17,8.60
2018,02,08,17,18,8.60
2018,02,08,17,19,8.60
2018,02,08,17,20,8.50
2018,02,08,17,21,8.50
2018,02,08,17,22,8.50
2018,02,08,17,23,8.50
2018,02,08,17,24,8.40
2018,02,08,17,25,8.40
2018,02,08,17,26,8.40
2018,02,08,17,27,8.40
2018,02,08,17,28,8.40
2018,02,08,17,29,8.40
2018,02,08,17,30,8.30
2018,02,08,17,31,8.30
2018,02,08,17,32,8.30
2018,02,08,17,33,8.30
2018,02,08,17,34,8.30
2018,02,08,17,35,8.30
2018,02,08,17,36,8.30
2018,02,08,17,37,8.30
2018,02,08,17,38,8.20
2018,02,08,17,39,8.20
2018,02,08,17,40,8.20
2018,02,08,17,41,8.20
2018,02,08,17,42,8.20
2018,02,08,17,43,8.20
2018,02,08,17,44,8.20
2018,02,08,17,45,8.10
2018,02,08,17,46,8.10
2018,02,08,17,47,8.10
2018,02,08,17,48,8.10
2018,02,08,17,49,8.10